When you browse on this site, cookies collect data to enhance your experience and personalize the content and advertising you see.
Visit our Privacy Policy to learn more. By continuing to use the site, you agree to this use of cookies and data.
  • In Lithuania
  • List of Countries
  • For 7 days
  • Water Temperature
  • Satellite Maps
  • Weather Map
  • Weather Widgets
  • user-avatar
    Login

    Hourly Weather Eisenstadt

    Today, 18 June, Tuesday

    Time Temperature Precipitation Wind Pressure Humidity
    00:00 +19°C° 0 mm 1 mps 724 mmHg 84%
    01:00 +19°C° 0 mm 1 mps 724 mmHg 83%
    02:00 +19°C° 0 mm 1 mps 724 mmHg 84%
    03:00 +18°C° 0 mm 1 mps 723 mmHg 85%
    04:00 +18°C° 0 mm 1 mps 723 mmHg 85%
    05:00 +19°C° 0 mm 1 mps 723 mmHg 83%
    06:00 +20°C° 0 mm 1 mps 724 mmHg 81%
    07:00 +19°C° 0 mm 0 mps 724 mmHg 79%
    08:00 +22°C° 0.1 mm 1 mps 724 mmHg 75%
    09:00 +23°C° 0.1 mm 1 mps 724 mmHg 71%
    10:00 +24°C° 0.1 mm 1 mps 724 mmHg 68%
    11:00 +25°C° 0.1 mm 2 mps 724 mmHg 65%
    12:00 +25°C° 0.1 mm 2 mps 723 mmHg 62%
    13:00 +26°C° 0.1 mm 2 mps 723 mmHg 59%
    14:00 +26°C° 0.3 mm 2 mps 723 mmHg 60%
    15:00 +26°C° 0.3 mm 2 mps 722 mmHg 62%
    16:00 +26°C° 0.3 mm 2 mps 722 mmHg 63%
    17:00 +25°C° 0.3 mm 2 mps 722 mmHg 70%
    18:00 +23°C° 0.3 mm 2 mps 722 mmHg 76%
    19:00 +22°C° 0.3 mm 1 mps 721 mmHg 82%
    20:00 +21°C° 0.3 mm 1 mps 721 mmHg 85%
    21:00 +20°C° 0.3 mm 1 mps 721 mmHg 87%
    22:00 +19°C° 0.3 mm 1 mps 721 mmHg 90%
    23:00 +19°C° 0 mm 1 mps 721 mmHg 91%

    Tomorrow, 19 June, Wednesday

    Time Temperature Precipitation Wind Pressure Humidity
    00:00 +19°C° 0 mm 1 mps 721 mmHg 91%
    01:00 +18°C° 0 mm 1 mps 721 mmHg 92%
    02:00 +18°C° 0 mm 1 mps 721 mmHg 92%
    03:00 +18°C° 0 mm 1 mps 721 mmHg 92%
    04:00 +18°C° 0 mm 1 mps 721 mmHg 92%
    05:00 +19°C° 0 mm 1 mps 721 mmHg 88%
    06:00 +19°C° 0 mm 0 mps 721 mmHg 84%
    07:00 +20°C° 0 mm 0 mps 721 mmHg 80%
    08:00 +24°C° 0 mm 1 mps 721 mmHg 73%
    09:00 +25°C° 0 mm 1 mps 721 mmHg 66%
    10:00 +27°C° 0 mm 2 mps 721 mmHg 59%
    11:00 +28°C° 0 mm 2 mps 721 mmHg 56%
    12:00 +29°C° 0 mm 2 mps 721 mmHg 52%
    13:00 +29°C° 0 mm 3 mps 721 mmHg 48%
    14:00 +29°C° 0.1 mm 3 mps 720 mmHg 51%
    15:00 +29°C° 0.1 mm 3 mps 720 mmHg 54%
    16:00 +29°C° 0.1 mm 3 mps 720 mmHg 56%
    17:00 +27°C° 1.5 mm 2 mps 720 mmHg 65%
    18:00 +25°C° 1.5 mm 2 mps 719 mmHg 74%
    19:00 +23°C° 1.5 mm 1 mps 719 mmHg 83%
    20:00 +22°C° 1.1 mm 1 mps 719 mmHg 84%
    21:00 +20°C° 1.1 mm 2 mps 720 mmHg 84%
    22:00 +18°C° 1.1 mm 2 mps 720 mmHg 85%
    23:00 +18°C° 0 mm 2 mps 720 mmHg 83%

    Day after tomorrow, 20 June, Thursday

    Time Temperature Precipitation Wind Pressure Humidity
    00:00 +19°C° 0 mm 1 mps 719 mmHg 80%
    01:00 +18°C° 0 mm 1 mps 719 mmHg 78%
    02:00 +18°C° 0 mm 1 mps 719 mmHg 78%
    03:00 +18°C° 0 mm 1 mps 719 mmHg 78%
    04:00 +18°C° 0 mm 1 mps 720 mmHg 78%
    05:00 +20°C° 0 mm 1 mps 720 mmHg 75%
    06:00 +19°C° 0 mm 0 mps 720 mmHg 72%
    07:00 +21°C° 0 mm 0 mps 720 mmHg 68%
    08:00 +25°C° 0 mm 1 mps 720 mmHg 64%
    09:00 +26°C° 0 mm 1 mps 720 mmHg 59%
    10:00 +28°C° 0 mm 1 mps 720 mmHg 54%
    11:00 +28°C° 0.1 mm 2 mps 720 mmHg 53%
    12:00 +29°C° 0.1 mm 2 mps 720 mmHg 51%
    13:00 +29°C° 0.1 mm 3 mps 720 mmHg 50%
    14:00 +29°C° 0.5 mm 2 mps 719 mmHg 52%
    15:00 +29°C° 0.5 mm 2 mps 719 mmHg 54%
    16:00 +29°C° 0.5 mm 2 mps 719 mmHg 56%
    17:00 +27°C° 1.1 mm 2 mps 719 mmHg 64%
    18:00 +26°C° 1.1 mm 2 mps 718 mmHg 72%
    19:00 +24°C° 1.1 mm 2 mps 718 mmHg 80%
    20:00 +23°C° 0.4 mm 1 mps 719 mmHg 82%
    21:00 +22°C° 0.4 mm 1 mps 719 mmHg 84%
    22:00 +21°C° 0.4 mm 1 mps 719 mmHg 86%
    23:00 +20°C° 1.5 mm 1 mps 719 mmHg 87%

    21 June, Friday

    Time Temperature Precipitation Wind Pressure Humidity
    00:00 +20°C° 1.5 mm 1 mps 719 mmHg 89%
    01:00 +18°C° 1.5 mm 2 mps 719 mmHg 90%
    02:00 +18°C° 0.1 mm 2 mps 720 mmHg 90%
    03:00 +17°C° 0.1 mm 2 mps 720 mmHg 90%
    04:00 +16°C° 0.1 mm 2 mps 720 mmHg 90%
    05:00 +18°C° 0 mm 2 mps 720 mmHg 86%
    06:00 +19°C° 0 mm 2 mps 721 mmHg 82%
    07:00 +22°C° 0 mm 1 mps 721 mmHg 78%
    08:00 +23°C° 0.3 mm 2 mps 722 mmHg 72%
    09:00 +25°C° 0.3 mm 2 mps 722 mmHg 67%
    10:00 +26°C° 0.3 mm 2 mps 722 mmHg 61%
    11:00 +26°C° 0.7 mm 1 mps 722 mmHg 63%
    12:00 +26°C° 0.7 mm 1 mps 722 mmHg 65%
    13:00 +26°C° 0.7 mm 1 mps 721 mmHg 67%
    14:00 +25°C° 1.2 mm 1 mps 721 mmHg 70%
    15:00 +25°C° 1.2 mm 1 mps 721 mmHg 72%
    16:00 +25°C° 1.2 mm 1 mps 721 mmHg 75%
    17:00 +24°C° 0.6 mm 1 mps 721 mmHg 78%
    18:00 +22°C° 0.6 mm 1 mps 721 mmHg 82%
    19:00 +20°C° 0.6 mm 2 mps 721 mmHg 85%
    20:00 +20°C° 0.1 mm 2 mps 722 mmHg 86%
    21:00 +19°C° 0.1 mm 2 mps 722 mmHg 87%
    22:00 +18°C° 0.1 mm 2 mps 723 mmHg 88%
    23:00 +18°C° 0.2 mm 2 mps 723 mmHg 88%

    22 June, Saturday

    Time Temperature Precipitation Wind Pressure Humidity
    00:00 +18°C° 0.2 mm 2 mps 723 mmHg 89%
    01:00 +17°C° 0.2 mm 2 mps 723 mmHg 90%
    02:00 +17°C° 0.2 mm 2 mps 722 mmHg 90%
    03:00 +17°C° 0.2 mm 2 mps 722 mmHg 91%
    04:00 +16°C° 0.2 mm 2 mps 722 mmHg 91%
    05:00 +17°C° 0.5 mm 2 mps 723 mmHg 90%
    06:00 +18°C° 0.5 mm 2 mps 723 mmHg 89%
    07:00 +18°C° 0.5 mm 2 mps 724 mmHg 88%
    08:00 +19°C° 0.4 mm 2 mps 724 mmHg 84%
    09:00 +20°C° 0.4 mm 3 mps 724 mmHg 81%
    10:00 +20°C° 0.4 mm 3 mps 724 mmHg 77%
    11:00 +22°C° 0.1 mm 3 mps 724 mmHg 71%
    12:00 +24°C° 0.1 mm 3 mps 724 mmHg 65%
    13:00 +25°C° 0.1 mm 3 mps 724 mmHg 60%
    14:00 +25°C° 0.1 mm 3 mps 723 mmHg 63%
    15:00 +24°C° 0.1 mm 3 mps 723 mmHg 65%
    16:00 +24°C° 0.1 mm 2 mps 723 mmHg 68%
    17:00 +23°C° 0.2 mm 2 mps 723 mmHg 74%
    18:00 +21°C° 0.2 mm 2 mps 723 mmHg 79%
    19:00 +21°C° 0.2 mm 1 mps 723 mmHg 84%
    20:00 +20°C° 0 mm 1 mps 723 mmHg 86%
    21:00 +19°C° 0 mm 1 mps 723 mmHg 87%
    22:00 +18°C° 0 mm 1 mps 723 mmHg 88%
    23:00 +18°C° 0 mm 1 mps 723 mmHg 89%

    23 June, Sunday

    Time Temperature Precipitation Wind Pressure Humidity
    00:00 +18°C° 0 mm 1 mps 723 mmHg 89%
    01:00 +18°C° 0 mm 1 mps 723 mmHg 89%
    02:00 +18°C° 0 mm 1 mps 723 mmHg 90%
    03:00 +16°C° 0 mm 1 mps 723 mmHg 90%
    04:00 +16°C° 0 mm 1 mps 722 mmHg 90%
    05:00 +19°C° 0 mm 1 mps 723 mmHg 86%
    06:00 +18°C° 0 mm 0 mps 723 mmHg 82%
    07:00 +20°C° 0 mm 0 mps 724 mmHg 78%
    08:00 +21°C° 0 mm 0 mps 724 mmHg 72%
    09:00 +25°C° 0 mm 1 mps 724 mmHg 66%
    10:00 +27°C° 0 mm 1 mps 724 mmHg 59%
    11:00 +27°C° 0 mm 1 mps 724 mmHg 58%
    12:00 +28°C° 0 mm 1 mps 724 mmHg 57%
    13:00 +28°C° 0 mm 1 mps 724 mmHg 55%
    14:00 +28°C° 0.5 mm 1 mps 723 mmHg 59%
    15:00 +27°C° 0.5 mm 1 mps 723 mmHg 63%
    16:00 +27°C° 0.5 mm 1 mps 723 mmHg 66%
    17:00 +26°C° 0.3 mm 1 mps 723 mmHg 71%
    18:00 +25°C° 0.3 mm 1 mps 723 mmHg 75%
    19:00 +22°C° 0.3 mm 0 mps 723 mmHg 80%
    20:00 +23°C° 0 mm 1 mps 724 mmHg 82%
    21:00 +22°C° 0 mm 1 mps 724 mmHg 83%
    22:00 +21°C° 0 mm 1 mps 724 mmHg 85%
    23:00 +20°C° 0 mm 1 mps 724 mmHg 86%
    Show more